Weather Roundup
Issued by NWS Corpus Christi, TX

Home | Current Version | Previous Version | Text Only | Print | Product List | Glossary Off
Versions: 1 2 3 4 5 6 7 8 9 10 11 12 13 14 15 16 17 18 19 20 21 22 23 24 25 26 27 28 29 30 31 32 33 34 35 36 37 38 39 40 41 42 43 44 45 46 47 48 49 50

000
ASUS44 KCRP 172210
HRRCRP

SOUTH TEXAS REGIONAL WEATHER ROUNDUP
NATIONAL WEATHER SERVICE CORPUS CHRISTI TX
500 PM CDT TUE OCT 17 2017


TXZ229>244-172300-
...CORPUS CHRISTI AREA OBSERVATIONS...

CITY           SKY/WX    TMP DP  RH WIND       PRES   REMARKS
CORPUS CHRISTI SUNNY     81  47  30 NE6       30.13F
NAS CORPUS CHR SUNNY     79  55  43 E7        30.13F
ROCKPORT       SUNNY     77  51  40 E5        30.13F
KINGSVILLE ARP FAIR      84  41  21 NE5       30.13F
KINGSVILLE NAS SUNNY     84  41  21 NW9       30.12F
ALICE          SUNNY     82  38  20 N9        30.13F
$$

...VICTORIA AREA OBSERVATIONS...

CITY           SKY/WX    TMP DP  RH WIND       PRES   REMARKS
PORT LAVACA    SUNNY     79  39  24 NE7       30.14S
VICTORIA       SUNNY     80  45  28 NE7       30.14F
BEEVILLE       FAIR      80  23  12 NE5       30.14F
PLEASANTON     SUNNY     79  41  25 CALM      30.16F
SAN ANTONIO    SUNNY     77  43  29 CALM      30.16F
$$

...LAREDO AREA OBSERVATIONS...

CITY           SKY/WX    TMP DP  RH WIND       PRES   REMARKS
LAREDO         SUNNY     81  43  26 CALM      30.14F
COTULLA        SUNNY     80  37  21 CALM      30.15F
DEL RIO        SUNNY     78  43  28 SE8       30.14F
MCALLEN        SUNNY     85  42  22 NW7       30.12F
HEBBRONVILLE   SUNNY     80  38  22 NE7       30.15F
$$

...OTHER TEXAS OBSERVATIONS...

CITY           SKY/WX    TMP DP  RH WIND       PRES   REMARKS
BROWNSVILLE    SUNNY     81  63  54 NE14G22   30.11F
HOUSTON        SUNNY     78  45  30 NE10      30.14F
COL. STATION   SUNNY     79  41  25 E6        30.15F
AUSTIN         SUNNY     77  45  32 VRB3      30.16F
WACO           SUNNY     76  40  27 S6        30.16F
FORT WORTH     SUNNY     76  40  27 SE7       30.15F
WICHITA FALLS  SUNNY     76  42  29 S12       30.11F
LUBBOCK        MOSUNNY   81  37  20 S14G23    30.12F
EL PASO        MOSUNNY   83  41  22 CALM      30.15F
$$

...MARINE OBSERVATIONS...

STATION/POSITION TIME  SKY/WX   TEMP    WIND        PRES    VSBY  WAVE   SWELL
                                AIR SEA DIR/SP/G                  HT/PER HT/PER
                 (UTC)          (F)     (DEG/KT/KT) (MB)    (MI)  (FT/S) (FT/S)
PORT ARANSAS     NOT AVBL
BUOY 90 E PORT A 2150            73 83   20/ 14/ 16 1019.9F         5/ 8   3/ 8
BUOY 200 E PT IS 2150            78 84   30/ 17/ 21 1017.7F         7/ 7   3/11
BUOY 15 E GALVES 2150            72 80   40/  8/ 12 1020.0F         3/ 7   2/ 7
$$



USA.gov is the U.S. government's official web portal to all federal, state and local government web resources and services.